{"data":{"norad_id":53495,"intl_designator":"2022-099AG","name":"STARLINK-4429","alt_names":[],"object_type":"PAYLOAD","status":"ACTIVE","operator":null,"country":"US","launch_date":"2022-08-12","launch_site_code":"AFWTR","launch_vehicle":null,"mission":null,"orbit_class":"UNKNOWN","rcs_meters":null,"size_class":null,"mass_kg":null,"dimensions":null,"purposes":["comms"],"wikipedia_slug":null,"has_3d_model":false,"image_url":null,"decayed_at":null,"tle_current":{"epoch":"2026-05-24T21:33:59.982624Z","epoch_age_seconds":80338,"freshness":"FRESH","line1":"1 53495U 22099AG  26144.89861091  .00001377  00000+0  99497-4 0  9996","line2":"2 53495  97.4489 264.8326 0001225 148.2388 211.8913 15.05644759207442","mean_motion":15.05644759,"eccentricity":0.0001225,"inclination_deg":97.4489,"raan_deg":264.8326,"arg_perigee_deg":148.2388,"mean_anomaly_deg":211.8913,"bstar":9.9497e-5,"rev_number":20744,"period_min":95.640089828121,"perigee_km":548.67859146543,"apogee_km":550.37586920186,"semimajor_km":6927.6642303336,"source":"CELESTRAK","updated_at":"2026-05-25T13:38:17.436017Z"}}}